Lid_Strength_Index
1 1 1 2 2 2 2 2 1 1 1 1 1 -0 0 0 0 -0 0 1 1 0 0 1 1 1 2 2 2 2 2 3 4 4 3 2 1 2 2 1 1 1 1
1 1 1 2 2 2 1 1 0 0 0 -0 -1 -0 1 1 1 1 1 1 1 1 1 1 1 1 1 1 2 1 2 2 3 5 4 4 3 1 1 1 2 2 1
1 1 1 1 2 2 2 1 1 1 0 -0 0 1 2 1 1 1 1 1 1 2 1 1 1 1 1 2 2 2 3 3 3 5 6 4 3 3 2 2 2 1 1
1 1 1 1 1 1 1 2 2 1 0 0 1 2 2 2 1 1 2 2 2 1 1 1 1 2 2 2 3 3 3 4 5 5 5 5 4 3 3 4 4 3 3
3 2 3 2 2 2 2 2 1 1 2 2 2 2 2 2 4 4 3 3 2 2 1 2 1 2 3 4 5 5 5 6 6 6 6 5 5 4 5 4 5 4 4
4 4 4 4 4 3 3 3 2 2 2 2 3 3 3 3 8 8 7 4 3 2 2 2 2 2 3 5 5 6 7 7 7 6 6 6 5 5 4 5 6 6 7
5 5 5 4 5 4 4 4 4 3 3 3 3 3 3 5 9 9 9 5 3 2 2 3 4 4 5 6 6 6 5 6 5 5 5 6 6 5 5 6 6 6 7
6 6 6 6 5 5 5 5 4 4 4 4 4 4 4 7 9 10 10 4 3 2 3 4 6 5 6 8 7 5 4 3 3 4 5 6 6 6 7 6 6 6 5
7 7 6 6 5 4 4 4 4 4 4 4 4 4 4 6 10 10 9 5 4 4 4 6 6 7 10 11 8 6 5 4 5 7 8 8 9 9 8 7 7 7 7
8 7 6 5 4 5 4 4 4 4 4 4 4 4 7 7 10 10 10 7 7 7 6 5 9 9 11 12 8 7 7 7 7 7 7 6 7 6 6 5 6 7 7
6 5 5 4 5 5 5 5 5 6 7 7 7 6 6 8 8 11 11 9 9 8 7 8 6 11 12 11 11 7 9 10 8 9 9 8 8 7 6 4 4 5 6
6 6 6 5 5 5 5 6 7 8 9 9 9 7 6 7 10 11 11 11 11 9 10 8 8 12 11 11 9 11 11 9 8 10 11 11 11 10 9 8 5 3 4
5 5 5 5 5 5 6 6 7 7 7 7 7 7 8 8 9 11 12 12 12 11 11 11 11 12 12 10 11 11 11 10 10 12 12 12 12 11 10 8 7 3 3
5 5 5 6 5 5 6 7 9 9 10 9 9 9 8 9 11 12 12 12 13 12 12 11 11 11 11 10 9 8 7 9 12 13 13 13 13 13 13 10 10 8 4
5 6 6 6 6 6 8 9 9 11 12 11 11 10 11 11 13 14 13 13 13 13 12 9 10 10 9 10 9 8 8 9 11 14 14 14 14 14 14 12 11 9 8
6 7 7 7 7 7 7 8 13 12 13 14 14 13 11 13 14 15 15 14 14 13 10 9 10 9 9 10 9 9 9 10 10 13 14 15 15 15 14 13 11 10 8
7 7 7 7 7 8 8 8 9 11 12 13 13 14 14 15 15 14 14 13 12 11 9 10 10 10 10 10 10 10 10 10 10 12 15 16 16 16 15 14 12 11 10
7 10 7 8 8 8 8 8 9 10 10 9 11 12 13 13 13 13 12 11 10 11 11 11 11 10 10 11 10 10 10 10 10 12 15 15 17 16 15 14 12 11 10
7 8 8 8 9 9 9 9 10 10 10 10 10 11 11 12 12 12 12 11 11 11 11 11 11 11 11 10 10 10 10 10 11 12 15 16 17 16 15 14 12 12 11
9 11 10 9 9 9 9 10 10 9 10 10 11 12 11 10 10 10 10 11 11 11 11 11 10 10 10 10 10 10 10 10 11 13 16 17 17 16 15 14 13 12 9
9 9 12 9 9 9 9 9 9 10 10 10 10 11 14 11 11 11 10 10 10 10 10 10 10 10 10 10 10 10 10 11 12 14 16 17 18 16 14 14 12 10 7
9 9 9 9 9 10 9 9 9 10 10 10 10 10 13 10 10 10 10 10 10 9 9 10 10 10 10 10 10 11 11 11 13 14 15 17 17 16 16 14 13 10 7
9 9 9 9 9 10 9 9 10 10 10 10 10 10 10 10 10 10 10 10 10 9 9 9 10 10 10 10 10 11 12 13 13 12 14 16 16 16 16 15 13 12 10
9 9 9 10 10 9 9 10 9 11 10 10 10 10 10 10 10 10 10 10 10 9 9 10 10 10 10 10 10 11 11 13 13 12 13 12 15 15 16 16 14 12 11
9 9 10 10 10 10 10 10 10 10 10 10 10 10 10 10 10 10 10 10 10 10 10 9 9 10 10 10 11 12 13 15 14 15 12 10 12 14 15 15 14 14 12
9 9 10 10 10 10 10 11 11 11 11 11 10 10 10 10 10 10 10 10 10 10 10 9 9 10 10 10 12 14 14 15 14 15 13 10 11 12 15 16 15 14 13